Home > Weather > Gatineau > Past weeks

Flag for Canada Weather for the Past 2 Weeks in Gatineau, Quebec, Canada

Now
-15 °F

Passing clouds.


Feels Like: -40 °F
Forecast: N/A
Wind: 17 mph from Northwest

Location: Ottawa Int'L. Ont.

Current Time: Feb 13, 2016 at 6:54:09 PM

Latest Report: Feb 13, 2016 at 6:00 PM


Visibility: 15 mi

Pressure: 30.38 "Hg

Humidity: 52%

Dew point: -27 °F

Location of GatineauLocation

Historic Weather in Gatineau — Graph

°F

Gatineau Temperature Yesterday

Maximum temperature yesterday: 23 °F (at 3:00 PM)
Minimum temperature yesterday: -8 °F (at 3:00 AM)
Average temperature yesterday: 7 °F

High & Low Weather Summary for the Past Weeks

 TemperatureHumidityPressure
High46 °F (Feb 3, 9:00 PM)100% (Jan 31, 9:00 PM)30.43 "Hg (Jan 31, 9:00 PM)
Low-20 °F (Feb 13, 8:00 AM)42% (Feb 8, 2:00 PM)29.38 "Hg (Feb 1, 3:00 AM)
Average21 °F73%29.93 "Hg
* Reported Jan 29 5:00 PM — Feb 13 5:00 PM, Gatineau, Weather by CustomWeather, © 2016

Note: Actual official high and low records may vary slightly from our data, if they occured in-between our weather recording intervals... More about our weather records

Advertising

Gatineau Weather History for the Previous 24 Hours

 ConditionsComfort  
Time TempWeatherWind HumidityBarometerVisibility
5:00 PM
Sat, Feb 13
-15 °FPartly sunny.20 mph52%30.34 "Hg15 mi
4:00 PM-13 °FPartly sunny.20 mph47%30.32 "Hg15 mi
3:00 PM-13 °FOvercast.18 mph52%30.29 "Hg15 mi
2:00 PM-13 °FOvercast.17 mph47%30.27 "Hg15 mi
1:00 PM-13 °FPartly sunny.17 mph52%30.26 "Hg15 mi
12:00 PM-15 °FBroken clouds.22 mph47%30.25 "Hg15 mi
11:00 AM-15 °FScattered clouds.20 mph52%30.25 "Hg15 mi
10:00 AM-17 °FPassing clouds.17 mph51%30.23 "Hg15 mi
9:00 AM-18 °FLow level haze.16 mph56%30.20 "Hg15 mi
8:00 AM-20 °FLow level haze.21 mph56%30.19 "Hg15 mi
7:00 AM-18 °FLow level haze.22 mph56%30.14 "Hg15 mi
6:00 AM-17 °FLow level haze.20 mph63%30.11 "Hg8 mi
5:03 AM-15 °FClear.23 mph69%30.08 "Hg7 mi
4:00 AM-11 °FPassing clouds.26 mph63%30.05 "Hg8 mi
3:00 AM-6 °FPassing clouds.20 mph64%30.01 "Hg8 mi
2:00 AM-2 °FPassing clouds.15 mph65%29.98 "Hg15 mi
1:00 AM1 °FPassing clouds.18 mph65%29.94 "Hg15 mi
12:00 AM3 °FPassing clouds.16 mph72%29.91 "Hg15 mi
11:00 PM
Fri, Feb 12
7 °FPassing clouds.18 mph66%29.89 "Hg15 mi
10:00 PM10 °FPassing clouds.14 mph61%29.86 "Hg15 mi
9:00 PM12 °FMostly cloudy.18 mph67%29.84 "Hg10 mi
8:00 PM14 °FLight snow. Overcast.14 mph85%29.83 "Hg3 mi
7:00 PM16 °FLight snow. Mostly cloudy.14 mph79%29.82 "Hg4 mi
6:00 PM19 °FLight snow. Low clouds.9 mph86%29.79 "Hg3 mi
Weather by CustomWeather, © 2016

See weather overviewHow to use our weather pages